This demonstration page uses our WeatherBlox Daily Observations layout. Learn more.

Left ArrowRight Arrow

39.51506, -84.39828

Hourly Observations for September 30, 2020

Temp ( °F °C ) Dew Point ( °F °C ) Humidity (%) Winds ( mph kmh ) Pressure ( in mb ) Visibility ( mi km ) Precip ( " mm )
12:35 am 00:35 Mostly Cloudy 51 10.7 50 10.2 97 97 SW 6 9 29.86 1011 10 16.0934 0 0
12:55 am 00:55 Clear 50 9.8 49 9.4 97 97 WSW 5 7 29.86 1011 10 16.0934 0 0
1:15 am 01:15 Clear 49 9.7 48 8.8 94 94 W 6 9 29.86 1011 10 16.0934 0 0
1:35 am 01:35 Clear 49 9.4 47 8.2 92 92 WSW 3 6 29.84 1011 10 16.0934 0 0
1:55 am 01:55 Clear 48 8.8 47 8.4 97 97 Calm 29.84 1011 10 16.0934 0 0
2:15 am 02:15 Clear 47 8.3 46 8 98 98 SW 5 7 29.84 1011 10 16.0934 0 0
2:35 am 02:35 Clear 47 8.1 46 7.8 98 98 Calm 29.84 1011 10 16.0934 0 0
2:55 am 02:55 Clear 46 7.8 45 7.3 97 97 SSW 5 7 29.84 1011 10 16.0934 0 0
3:15 am 03:15 Clear 46 7.7 45 7.4 98 98 SSW 5 7 29.84 1011 10 16.0934 0 0
3:35 am 03:35 Partly Cloudy 46 7.7 45 7.4 98 98 Calm 29.83 1010 10 16.0934 0 0
3:55 am 03:55 Cloudy 47 8.2 46 7.8 97 97 Calm 29.83 1010 10 16.0934 0 0
4:15 am 04:15 Mostly Cloudy 47 8.2 46 7.7 97 97 Calm 29.83 1010 10 16.0934 0 0
4:35 am 04:35 Partly Cloudy 46 7.9 45 7.4 97 97 Calm 29.83 1010 10 16.0934 0 0
4:55 am 04:55 Partly Cloudy 46 7.6 45 7.3 98 98 SW 3 6 29.84 1010 10 16.0934 0 0
5:15 am 05:15 Clear 46 7.5 45 7.3 99 99 WSW 3 6 29.84 1010 10 16.0934 0 0
5:35 am 05:35 Clear 46 8 46 7.7 98 98 SW 6 9 29.83 1010 10 16.0934 0 0
5:55 am 05:55 Clear 47 8.2 46 7.8 97 97 SW 7 11 29.83 1010 10 16.0934 0 0
6:15 am 06:15 Clear 47 8.1 46 7.7 97 97 SW 5 7 29.83 1010 10 16.0934 0 0
6:35 am 06:35 Clear 47 8.3 46 7.9 97 97 SW 7 11 29.83 1010 10 16.0934 0 0
6:55 am 06:55 Clear 47 8.3 46 7.9 97 97 SSW 8 13 29.82 1010 10 16.0934 0 0
7:15 am 07:15 Clear 47 8.2 46 7.6 96 96 SSW 7 11 29.82 1010 10 16.0934 0 0
7:35 am 07:35 Sunny 47 8.1 46 7.5 96 96 SSW 6 9 29.81 1010 10 16.0934 0 0
7:55 am 07:55 Mostly Cloudy 48 8.8 47 8.1 95 95 SSW 6 9 29.81 1010 10 16.0934 0 0
8:15 am 08:15 Mostly Cloudy 48 9.1 47 8.5 96 96 SSW 5 7 29.82 1010 10 16.0934 0 0
8:35 am 08:35 Sunny 50 9.8 48 8.7 93 93 SSW 6 9 29.82 1010 10 16.0934 0 0
8:55 am 08:55 Sunny 51 10.8 48 9.1 89 89 S 10 17 29.8 1009 10 16.0934 0 0
9:15 am 09:15 Sunny 52 11.3 48 8.9 85 85 SSW 13 20 29.8 1009 10 16.0934 0 0
9:35 am 09:35 Sunny 54 12.4 49 9.3 82 82 SSW 13 20 29.79 1009 10 16.0934 0 0
9:55 am 09:55 Sunny 57 13.7 49 9.2 74 74 SSW 16 26 29.78 1008 10 16.0934 0 0
10:15 am 10:15 Sunny 58 14.6 48 9.1 70 70 SSW 16 26 29.77 1008 10 16.0934 0 0
10:35 am 10:35 Sunny 60 15.6 48 8.9 65 65 SSW 18 30 29.79 1009 10 16.0934 0 0
10:55 am 10:55 Sunny 61 16.2 48 8.9 62 62 SW 18 30 29.78 1009 10 16.0934 0 0
11:15 am 11:15 Partly Cloudy 62 16.9 47 8.4 58 58 SW 22 35 29.78 1009 10 16.0934 0 0
11:35 am 11:35 Partly Cloudy 64 17.8 48 8.7 55 55 SW 17 28 29.78 1008 10 16.0934 0 0
11:55 am 11:55 Partly Cloudy 64 18 48 8.8 55 55 SW 21 33 29.78 1008 10 16.0934 0 0
12:15 pm 12:15 Partly Cloudy 65 18.3 47 8.6 53 53 SW 20 31 29.79 1009 10 16.0934 0 0
12:35 pm 12:35 Mostly Cloudy 68 20.1 48 9.1 49 49 SW 23 37 29.77 1008 10 16.0934 0 0
12:55 pm 12:55 Cloudy 68 19.8 47 8.4 48 48 SW 22 35 29.78 1008 10 16.0934 0 0
1:15 pm 13:15 Mostly Cloudy 69 20.6 47 8.4 46 46 WSW 17 28 29.77 1008 10 16.0934 0 0
1:35 pm 13:35 Cloudy 70 21.3 48 8.9 45 45 SW 16 26 29.76 1008 10 16.0934 0 0
1:55 pm 13:55 Cloudy 71 21.6 48 9.1 45 45 SW 21 33 29.75 1007 10 16.0934 0 0
2:15 pm 14:15 Cloudy 70 21.1 49 9.2 47 47 SW 15 24 29.73 1007 10 16.0934 0 0
2:35 pm 14:35 Cloudy 70 21.1 47 8.3 44 44 SW 20 31 29.72 1007 10 16.0934 0 0
2:55 pm 14:55 Cloudy 70 21.3 47 8.5 44 44 SW 20 31 29.72 1006 10 16.0934 0 0
3:15 pm 15:15 Partly Cloudy 71 21.9 48 8.9 44 44 SW 18 30 29.71 1006 10 16.0934 0 0
3:35 pm 15:35 Sunny 70 21.3 48 8.9 45 45 SSW 16 26 29.7 1006 10 16.0934 0 0
3:55 pm 15:55 Partly Cloudy 71 21.5 48 9.1 45 45 SSW 15 24 29.69 1005 10 16.0934 0 0
4:15 pm 16:15 Mostly Cloudy 71 21.9 49 9.5 45 45 SW 8 13 29.7 1006 10 16.0934 0 0
4:35 pm 16:35 Mostly Cloudy 73 22.5 49 9.3 43 43 WSW 15 24 29.72 1006 10 16.0934 0 0
4:55 pm 16:55 Cloudy 71 21.6 49 9.6 46 46 SW 9 15 29.72 1006 10 16.0934 0 0
5:15 pm 17:15 Cloudy 71 21.5 49 9.5 46 46 W 10 17 29.73 1007 10 16.0934 0 0
5:35 pm 17:35 Cloudy 70 21 50 9.8 49 49 WSW 5 7 29.73 1007 10 16.0934 0 0
5:55 pm 17:55 Cloudy 70 21 50 10 50 50 W 5 7 29.73 1007 10 16.0934 0 0
6:15 pm 18:15 Cloudy 69 20.3 50 10.1 52 52 W 5 7 29.74 1007 10 16.0934 0 0
6:35 pm 18:35 Cloudy 68 20.1 50 10.2 53 53 W 5 7 29.75 1008 10 16.0934 0 0
6:55 pm 18:55 Cloudy 69 20.3 49 9.2 49 49 W 9 15 29.76 1008 10 16.0934 0 0
7:15 pm 19:15 Cloudy 68 20.1 48 8.8 48 48 W 8 13 29.76 1008 10 16.0934 0 0
7:35 pm 19:35 Cloudy 68 20 47 8.3 47 47 W 9 15 29.78 1009 10 16.0934 0 0
7:55 pm 19:55 Cloudy 67 19.7 46 7.7 46 46 NW 17 28 29.81 1009 10 16.0934 0 0
8:15 pm 20:15 Cloudy 66 18.7 41 5.1 41 41 NW 14 22 29.83 1010 10 16.0934 0 0
8:35 pm 20:35 Cloudy 65 18.2 41 5 42 42 NW 9 15 29.83 1010 10 16.0934 0 0
8:55 pm 20:55 Partly Cloudy 63 17.2 42 5.4 46 46 WNW 8 13 29.85 1011 10 16.0934 0 0
9:15 pm 21:15 Partly Cloudy 62 16.5 42 5.8 49 49 WNW 8 13 29.86 1011 10 16.0934 0 0
9:35 pm 21:35 Clear 61 16.3 43 5.9 50 50 W 7 11 29.87 1012 10 16.0934 0 0
9:55 pm 21:55 Clear 60 15.5 43 6 53 53 W 8 13 29.89 1012 10 16.0934 0 0
10:15 pm 22:15 Clear 60 15.5 42 5.8 53 53 NW 14 22 29.9 1012 10 16.0934 0 0
10:35 pm 22:35 Clear 60 15.3 42 5.8 53 53 NW 13 20 29.9 1012 10 16.0934 0 0
10:55 pm 22:55 Clear 59 14.9 43 6 55 55 NW 12 19 29.91 1013 10 16.0934 0 0
11:15 pm 23:15 Clear 58 14.4 43 6.2 58 58 NNW 10 17 29.92 1013 10 16.0934 0 0
11:35 pm 23:35 Clear 56 13.6 44 6.5 62 62 Calm 29.93 1014 10 16.0934 0 0
11:55 pm 23:55 Clear 54 12.4 43 6.2 66 66 Calm 29.94 1014 10 16.0934 0 0

Powered by AerisWeather